Simultaneous Nadir Overpasses (SNOs) Predictions

Prediction of SNOs between METOP-A and NOAA-19 Satellite Orbit:

Table of predicted SNOs for the next 14.0 days since TLE Epoch: 3/15/2019
Index Date (METOP-A) Time (METOP-A) Lat,Lon (METOP-A) SZA (METOP-A ) Date (NOAA-19) Time (NOAA-19) Lat,Lon (NOAA-19) SZA (NOAA-19 ) Distance(km) Time Diff (sec)
1 03/20/2019 17:39:41 79.64, -72.19 79.84 03/20/2019 17:38:34 79.64, -75.45 79.74 65.04 67
2 03/20/2019 18:30:27 -79.47, 93.79 100.39 03/20/2019 18:29:28 -79.45, 93.73 100.42 2.50 59
3 03/20/2019 19:21:08 79.45, -99.06 79.58 03/20/2019 19:20:28 79.45, -98.97 79.57 1.80 40
4 03/20/2019 20:11:49 -79.45, 68.28 100.44 03/20/2019 20:11:29 -79.46, 68.20 100.44 1.66 20
5 03/20/2019 21:02:30 79.43,-124.56 79.52 03/20/2019 21:02:29 79.45,-124.49 79.55 2.75 1
6 03/20/2019 21:53:11 -79.43, 42.78 100.50 03/20/2019 21:53:29 -79.43, 42.96 100.49 3.68 18
7 03/20/2019 22:43:51 79.44,-149.80 79.51 03/20/2019 22:44:29 79.42,-149.73 79.50 2.53 38
8 03/20/2019 23:34:32 -79.44, 17.54 100.51 03/20/2019 23:35:30 -79.43, 17.43 100.51 2.49 58




NCC Satellite Simultaneous Nadir Overpasses (SNOs) Prediction Service
